Location: Austin
(30.3000°N, 97.7500°W)
Time: 04:21:48
(UTC-05:00)

Gbstr 26 Del rocket - Pass Details

Date: 18 March 2023
Orbit: 491 x 1254 km, 51.8° (Epoch: 01 April)

Event Time Altitude Azimuth Distance (km) Brightness Sun altitude
Rises 20:17:59 0° 312° (NW) 3,264 7.7 -8.8°
Reaches altitude 10° 20:20:14 10° 309° (NW) 2,442 7.0 -9.3°
Maximum altitude 20:25:59 66° 229° (SW) 1,049 4.4 -10.5°
Drops below altitude 10° 20:33:03 10° 148° (SSE) 2,964 6.2 -12.0°
Sets 20:36:02 0° 146° (SE) 4,012 6.8 -12.6°
